Location: Passau
(48.5830°N, 13.4830°E)
Time: 10:18:43
(UTC+01:00)

NOAA 19 - Pass Details

Date: 07 December 2021
Orbit: 841 x 860 km, 99.2° (Epoch: 26 January)

Event Time Altitude Azimuth Distance (km) Brightness Sun altitude
Rises 18:57:56 0° 173° (S) 3,383 8.3 -26.6°
Reaches altitude 10° 19:00:18 10° 177° (S) 2,454 7.6 -27.0°
Maximum altitude 19:05:41 62° 257° (WSW) 949 5.6 -27.9°
Drops below altitude 10° 19:11:08 10° 339° (NNW) 2,481 7.8 -28.8°
Sets 19:13:33 0° 343° (NNW) 3,423 8.5 -29.2°
